Hill City, KS

9:16 PM CDT on April 22, 2018 (GMT -0500)
Hill City Municipal

Weather History for KHLC - July, 2013

Change the Weather History Date:

Monday, July 8, 2013

  Actual Average Record
Temperature  
Mean Temperature 88 °F 79 °F  
Max Temperature 105 °F 93 °F 106 °F (1934)
Min Temperature 71 °F 65 °F 44 °F (1952)
Cooling Degree Days 22    
Growing Degree Days 38 (Base 50)    
Moisture  
Dew Point 60 °F    
Average Humidity 47    
Maximum Humidity 96    
Minimum Humidity 18    
Precipitation  
Precipitation 0.01 in 0.11 in 0.38 in (2012)
Month to date precipitation 0.18 0.78  
Year to date precipitation 7.20 12.04  
Sea Level Pressure  
Sea Level Pressure 29.87 in    
Wind  
Wind Speed 8 mph (South)    
Max Wind Speed 16 mph    
Max Gust Speed 28 mph    
Visibility 10 miles    
Events Rain    
T = Trace of Precipitation, MM = Missing Value Source: NWS Daily Summary

Daily Weather History Graph

Daily Weather History Graph

Search for Another Location

Airport or City:

Astronomy

Jul. 08, 2013 Rise Set
Actual Time 6:20 AM CDT 9:08 PM CDT
Civil Twilight 5:48 AM CDT 9:40 PM CDT
Nautical Twilight 5:08 AM CDT 10:20 PM CDT
Astronomical Twilight 4:22 AM CDT 11:05 PM CDT
Moon 6:50 AM CDT (7/8) 9:12 PM CDT (7/8)
Length of Visible Light 15h 51m
Length of Day
14h 48m
New Moon, 0% of the Moon is Illuminated
Jul 8
New Moon
Jul 15
First Quarter
Jul 22
Full
Jul 29
Last Quarter
Aug 6
New

Hourly Weather History & Observations

Time (CDT) Temp. Heat Index Dew Point Humidity Pressure Visibility Wind Dir Wind Speed Gust Speed Precip Events Conditions
12:53 AM 82.9 °F 82.8 °F 59.0 °F 44% 29.88 in 10.0 mi Calm Calm - 0.00 in Rain Light Rain
1:28 AM 86.0 °F 84.9 °F 57.2 °F 37% 30.02 in 10.0 mi NW 15.0 mph 21.9 mph 0.00 in   Overcast
1:53 AM 75.9 °F - 64.9 °F 69% 29.93 in 10.0 mi Variable 3.5 mph - 0.00 in   Mostly Cloudy
2:53 AM 75.0 °F - 66.9 °F 76% 29.96 in 10.0 mi SW 6.9 mph - N/A   Partly Cloudy
3:53 AM 73.0 °F - 70.0 °F 90% 29.91 in 10.0 mi South 5.8 mph - 0.01 in   Mostly Cloudy
4:53 AM 71.1 °F - 70.0 °F 96% 29.90 in 8.0 mi Calm Calm - 0.00 in   Clear
5:53 AM 71.1 °F - 70.0 °F 96% 29.91 in 8.0 mi NW 4.6 mph - N/A   Clear
6:53 AM 71.1 °F - 69.1 °F 93% 29.91 in 6.0 mi Calm Calm - N/A   Partly Cloudy
7:53 AM 73.0 °F - 70.0 °F 90% 29.91 in 7.0 mi East 3.5 mph - N/A   Clear
8:53 AM 78.1 °F - 66.0 °F 66% 29.91 in 10.0 mi SE 5.8 mph - N/A   Clear
9:53 AM 82.9 °F 83.7 °F 62.1 °F 49% 29.92 in 10.0 mi South 9.2 mph - N/A   Clear
10:53 AM 86.0 °F 86.8 °F 63.0 °F 46% 29.91 in 10.0 mi East 8.1 mph - N/A   Clear
11:53 AM 91.0 °F 91.5 °F 62.1 °F 38% 29.88 in 10.0 mi SSE 10.4 mph - N/A   Clear
12:53 PM 97.0 °F 96.1 °F 57.9 °F 27% 29.87 in 10.0 mi SSW 15.0 mph 23.0 mph N/A   Clear
1:53 PM 100.0 °F 99.7 °F 57.9 °F 25% 29.86 in 10.0 mi SSW 15.0 mph 25.3 mph N/A   Clear
2:53 PM 100.0 °F 98.8 °F 55.9 °F 23% 29.84 in 10.0 mi South 16.1 mph 27.6 mph N/A   Partly Cloudy
3:53 PM 102.0 °F 100.1 °F 54.0 °F 20% 29.82 in 10.0 mi SSW 9.2 mph 19.6 mph N/A   Scattered Clouds
4:53 PM 104.0 °F 102.3 °F 54.0 °F 19% 29.79 in 10.0 mi South 15.0 mph 27.6 mph N/A   Partly Cloudy
5:53 PM 104.0 °F 101.8 °F 53.1 °F 18% 29.78 in 10.0 mi South 15.0 mph 26.5 mph N/A   Clear
6:53 PM 102.0 °F 99.7 °F 53.1 °F 19% 29.77 in 10.0 mi SSW 16.1 mph 24.2 mph N/A   Partly Cloudy
7:53 PM 100.0 °F 97.9 °F 53.1 °F 21% 29.77 in 10.0 mi South 15.0 mph 24.2 mph N/A   Clear
8:53 PM 96.1 °F 93.5 °F 53.1 °F 23% 29.78 in 10.0 mi South 13.8 mph - N/A   Clear
9:53 PM 93.0 °F 90.8 °F 54.0 °F 27% 29.80 in 10.0 mi South 13.8 mph - N/A   Clear
10:53 PM 90.0 °F 87.7 °F 54.0 °F 29% 29.81 in 10.0 mi South 12.7 mph - N/A   Clear
11:53 PM 89.1 °F 86.9 °F 54.0 °F 30% 29.81 in 10.0 mi South 15.0 mph 20.7 mph N/A   Clear